Regional Weather Roundup
Issued by NWS

Home | Current Version | Previous Version | Text Only | Print | Product List | Glossary On
Versions: 1 2 3 4 5 6 7 8 9 10 11 12 13 14 15 16 17 18 19 20 21 22 23 24 25 26 27 28
000
ASUS44 KJAN 130610
RWRMS

MISSISSIPPI HOURLY WEATHER ROUNDUP
NATIONAL WEATHER SERVICE JACKSON MS
1200 AM CST WED DEC 13 2017

NOTE: "FAIR: INDICATES FEW OR NO CLOUDS BELOW 12,000 FEET WITH NO
SIGNIFICANT WEATHER AND/OR OBSTRUCTIONS TO VISIBILITY.

MSZ001>002-007>008-010>013-018>021-025>028-034>036-130700-
NORTHWEST MISSISSIPPI

CITY           SKY/WX    TMP DP  RH WIND       PRES   REMARKS
BATESVILLE     FAIR      26  24  89 CALM      30.17F
CLARKSDALE     PTCLDY    32  28  86 CALM      30.16F
CLEVELAND      FAIR      31  27  84 CALM      30.17S
GREENWOOD      CLOUDY    30  26  85 CALM      30.17S
6HR MIN TEMP:  28; 6HR MAX TEMP:  43;

GREENVILLE     CLOUDY    30  21  69 CALM      30.17S
6HR MIN TEMP:  29; 6HR MAX TEMP:  41;

OXFORD         FAIR      27  21  80 CALM      30.16F
TUNICA           N/A    N/A N/A N/A CALM      30.16F
WINONA         FAIR      27  26  96 CALM      30.16S
$$

MSZ003>006-009-014>017-022>024-029>033-037>039-130700-
NORTHEAST MISSISSIPPI

CITY           SKY/WX    TMP DP  RH WIND       PRES   REMARKS
ABERDEEN       FAIR      27  23  86 CALM      30.17F
COLUMBUS AFB   CLEAR     28  24  86 CALM      30.16S
6HR MIN TEMP:  28; 6HR MAX TEMP:  45;

CORINTH        FAIR      27  19  74 CALM      30.14F
GOLDN TRIANGLE   N/A    N/A N/A N/A MISG        N/A
STARKVILLE     FAIR      30  27  86 CALM      30.18S
TUPELO         CLEAR     30  21  69 CALM      30.15F
6HR MIN TEMP:  29; 6HR MAX TEMP:  43;

$$

MSZ040-058-130700-
CENTRAL MISSISSIPPI

CITY           SKY/WX    TMP DP  RH WIND       PRES   REMARKS
JACKSON INTL   CLEAR     33  27  78 CALM      30.16S
6HR MIN TEMP:  31; 6HR MAX TEMP:  48;

JACKSON HAWKNS CLEAR     35  28  75 CALM      30.17F
6HR MIN TEMP:  35; 6HR MAX TEMP:  48;

MADISON        FAIR      32  28  86 CALM      30.16F
MERIDIAN KEY   CLEAR     34  29  82 CALM      30.17S
6HR MIN TEMP:  34; 6HR MAX TEMP:  48;

MERIDIAN NAS   CLEAR     36  29  75 NW6       30.17S WCI  31
6HR MIN TEMP:  36; 6HR MAX TEMP:  48;

RAYMOND          N/A     28  28 100 CALM      30.17F
VICKSBURG VKS  CLEAR     30  28  93 CALM      30.19S
$$

MSZ059>079-130700-
SOUTH MISSISSIPPI

CITY           SKY/WX    TMP DP  RH WIND       PRES   REMARKS
HATTIESBURG    CLEAR     34  32  92 CALM      30.18F
6HR MIN TEMP:  34; 6HR MAX TEMP:  51;

LAUREL         FAIR      33  28  82 CALM      30.18F
MCCOMB         CLEAR     34  28  79 CALM      30.16F
6HR MIN TEMP:  32; 6HR MAX TEMP:  49;

NATCHEZ        CLEAR     30  27  88 CALM      30.18F
6HR MIN TEMP:  30; 6HR MAX TEMP:  47;

PINE BELT      CLEAR     38  28  67 N7        30.17F WCI  33
6HR MIN TEMP:  36; 6HR MAX TEMP:  49;

$$

MSZ080>082-130700-
COASTAL MISSISSIPPI

CITY           SKY/WX    TMP DP  RH WIND       PRES   REMARKS
BILOXI         CLEAR     41  34  75 NW5       30.16S
6HR MIN TEMP:  41; 6HR MAX TEMP:  51;

PASCAGOULA     CLEAR     41  30  65 N5        30.16S
6HR MIN TEMP:  35; 6HR MAX TEMP:  49;

GULFPORT       CLEAR     38  35  89 NW3       30.16F
6HR MIN TEMP:  38; 6HR MAX TEMP:  53;

$$

LAZ007>009-015>016-023>026-130700-
NORTHEAST LOUISIANA

CITY           SKY/WX    TMP DP  RH WIND       PRES   REMARKS
BASTROP        FAIR      29  29  97 CALM      30.18F
TALLULAH/VBURG CLOUDY    26  25  96 CALM      30.19S
6HR MIN TEMP:  26; 6HR MAX TEMP:  47;

VIDALIA          N/A    N/A N/A N/A MISG      30.18F
$$




USA.gov is the U.S. government's official web portal to all federal, state and local government web resources and services.